| time (UTC) | temp F | wind direction | speed knots | gust knots | rain 1hr in | rain 24hr in | rain mn in | humidity % | barometer mb |
| 20260510224504 | 58 | 326 | 0.0 | 3.5 | 0.00 | 0.03 | 0.02 | 68 | 1013.2 |
| 20260510221517 | 60 | 309 | 0.0 | 2.6 | 0.00 | 0.03 | 0.02 | 69 | 1013.1 |
| 20260510220113 | 59 | 310 | 0.0 | 2.6 | 0.00 | 0.03 | 0.02 | 69 | 1013.1 |
| 20260510214529 | 59 | 311 | 0.0 | 2.6 | 0.00 | 0.05 | 0.02 | 69 | 1013.0 |
| 20260510213123 | 60 | 288 | 0.0 | 2.6 | 0.00 | 0.05 | 0.02 | 69 | 1012.8 |
| 20260510211547 | 61 | 254 | 0.0 | 3.5 | 0.00 | 0.05 | 0.02 | 69 | 1012.9 |
| 20260510210134 | 61 | 280 | 0.0 | 7.0 | 0.00 | 0.05 | 0.02 | 66 | 1012.5 |
| 20260510204603 | 62 | 237 | 0.0 | 3.5 | 0.01 | 0.11 | 0.02 | 65 | 1012.5 |
| 20260510203006 | 59 | 246 | 0.0 | 2.6 | 0.01 | 0.11 | 0.02 | 34 | 1012.4 |
| 20260510201601 | 57 | 247 | 0.0 | 2.6 | 0.01 | 0.11 | 0.02 | 52 | 1012.4 |
| 20260510200015 | 61 | 257 | 0.9 | 7.8 | 0.01 | 0.11 | 0.02 | 68 | 1012.3 |
| 20260510194611 | 65 | 260 | 0.0 | 3.5 | 0.00 | 0.14 | 0.01 | 67 | 1012.0 |
| 20260510193030 | 66 | 298 | 0.0 | 2.6 | 0.01 | 0.14 | 0.01 | 65 | 1012.0 |
| 20260510191616 | 65 | 311 | 0.0 | 0.9 | 0.01 | 0.14 | 0.01 | 67 | 1012.2 |
| 20260510190048 | 63 | 250 | 0.0 | 0.9 | 0.01 | 0.14 | 0.01 | 51 | 1012.4 |
| 20260510184621 | 63 | 250 | 0.0 | 0.9 | 0.01 | 0.17 | 0.01 | 62 | 1012.5 |
| 20260510183041 | 64 | 248 | 0.0 | 2.6 | 0.00 | 0.16 | 0.00 | 66 | 1012.3 |
| 20260510181501 | 64 | 284 | 0.0 | 3.5 | 0.00 | 0.16 | 0.00 | 67 | 1012.3 |
| 20260510180055 | 66 | 295 | 0.0 | 5.2 | 0.00 | 0.16 | 0.00 | 63 | 1012.4 |
| 20260510174501 | 68 | 252 | 0.9 | 4.3 | 0.00 | 0.17 | 0.00 | 54 | 1012.0 |
| 20260510173059 | 71 | 273 | 0.9 | 4.3 | 0.00 | 0.17 | 0.00 | 54 | 1012.1 |
| 20260510171524 | 69 | 262 | 0.9 | 7.8 | 0.00 | 0.17 | 0.00 | 57 | 1012.2 |
| 20260510170058 | 70 | 225 | 1.7 | 9.6 | 0.00 | 0.17 | 0.00 | 55 | 1012.1 |
| 20260510164515 | 70 | 167 | 0.0 | 3.5 | 0.00 | 0.18 | 0.00 | 57 | 1012.2 |
| 20260510163116 | 67 | 247 | 0.0 | 4.3 | 0.00 | 0.18 | 0.00 | 59 | 1012.5 |
| 20260510161537 | 66 | 229 | 0.9 | 7.0 | 0.00 | 0.18 | 0.00 | 60 | 1012.6 |
| 20260510160134 | 67 | 134 | 0.9 | 4.3 | 0.00 | 0.18 | 0.00 | 60 | 1012.7 |
| 20260510154553 | 66 | 181 | 0.9 | 7.0 | 0.00 | 0.19 | 0.00 | 65 | 1012.7 |
| 20260510153017 | 65 | 240 | 0.0 | 9.6 | 0.00 | 0.19 | 0.00 | 65 | 1012.9 |
| 20260510151605 | 65 | 247 | 0.9 | 4.3 | 0.00 | 0.19 | 0.00 | 63 | 1012.9 |
| 20260510150022 | 65 | 194 | 0.0 | 6.1 | 0.00 | 0.19 | 0.00 | 67 | 1012.9 |
| 20260510144615 | 63 | 174 | 0.0 | 2.6 | 0.00 | 0.20 | 0.00 | 68 | 1012.8 |
| 20260510143040 | 61 | 261 | 1.7 | 4.3 | 0.00 | 0.20 | 0.00 | 68 | 1012.9 |
| 20260510141632 | 61 | 142 | 0.9 | 5.2 | 0.00 | 0.20 | 0.00 | 64 | 1013.0 |
| 20260510140053 | 59 | 221 | 0.0 | 4.3 | 0.00 | 0.20 | 0.00 | 44 | 1013.0 |
| 20260510134511 | 57 | 246 | 0.0 | 0.9 | 0.00 | 0.21 | 0.00 | 15 | 1013.2 |
| 20260510133109 | 55 | 254 | 0.0 | 1.7 | 0.00 | 0.21 | 0.00 | 1 | 1013.2 |
| 20260510131522 | 53 | 263 | 1.7 | 5.2 | 0.00 | 0.21 | 0.00 | 1 | 1013.3 |
| 20260510130110 | 52 | 202 | 0.0 | 2.6 | 0.00 | 0.21 | 0.00 | 1 | 1013.2 |
| 20260510124523 | 51 | 202 | 0.0 | 1.7 | 0.00 | 0.24 | 0.00 | 1 | 1013.1 |
| 20260510123122 | 51 | 202 | 0.0 | 0.9 | 0.00 | 0.24 | 0.00 | 1 | 1013.1 |
| 20260510121539 | 51 | 202 | 0.0 | 0.9 | 0.00 | 0.24 | 0.00 | 1 | 1012.9 |
| 20260510120005 | 50 | 202 | 0.0 | 0.9 | 0.00 | 0.24 | 0.00 | 1 | 1013.1 |
| 20260510114546 | 49 | 202 | 0.0 | 0.9 | 0.00 | 0.24 | 0.00 | 1 | 1013.1 |
| 20260510113003 | 49 | 202 | 0.0 | 0.9 | 0.00 | 0.24 | 0.00 | 1 | 1013.0 |
| 20260510111555 | 49 | 203 | 0.0 | 2.6 | 0.00 | 0.24 | 0.00 | 1 | 1013.0 |
| 20260510110036 | 49 | 202 | 0.0 | 1.7 | 0.00 | 0.24 | 0.00 | 1 | 1012.7 |
| 20260510104605 | 49 | 202 | 0.0 | 0.9 | 0.00 | 0.28 | 0.00 | 1 | 1012.7 |
| 20260510101621 | 48 | 198 | 0.9 | 3.5 | 0.00 | 0.28 | 0.00 | 1 | 1012.3 |
| 20260510100047 | 48 | 244 | 0.0 | 0.9 | 0.00 | 0.28 | 0.00 | 1 | 1012.2 |
| 20260510094630 | 48 | 244 | 0.0 | 2.6 | 0.00 | 0.36 | 0.00 | 1 | 1012.0 |
| 20260510093045 | 48 | 243 | 0.0 | 1.7 | 0.00 | 0.36 | 0.00 | 1 | 1011.2 |
| 20260510091506 | 48 | 244 | 0.0 | 1.7 | 0.00 | 0.36 | 0.00 | 1 | 1011.3 |
| 20260510090057 | 48 | 247 | 0.0 | 1.7 | 0.00 | 0.36 | 0.00 | 1 | 1011.5 |
| 20260510084511 | 48 | 265 | 0.0 | 1.7 | 0.00 | 0.41 | 0.00 | 1 | 1011.7 |
| 20260510083106 | 48 | 267 | 0.0 | 4.3 | 0.00 | 0.41 | 0.00 | 1 | 1012.2 |
| 20260510081534 | 48 | 234 | 1.7 | 3.5 | 0.00 | 0.41 | 0.00 | 1 | 1012.3 |
| 20260510080110 | 48 | 249 | 0.9 | 2.6 | 0.00 | 0.41 | 0.00 | 1 | 1012.1 |
| 20260510074529 | 48 | 250 | 0.0 | 1.7 | 0.00 | 0.41 | 0.00 | 1 | 1012.3 |
| 20260510073120 | 47 | 250 | 0.0 | 3.5 | 0.00 | 0.41 | 0.00 | 1 | 1012.2 |
| 20260510071539 | 47 | 190 | 0.0 | 0.9 | 0.00 | 0.41 | 0.00 | 1 | 1012.0 |
| 20260510070131 | 47 | 208 | 0.0 | 2.6 | 0.00 | 0.41 | 0.00 | 1 | 1011.9 |
| 20260510064555 | 47 | 208 | 0.0 | 1.7 | 0.00 | 0.41 | 0.00 | 1 | 1012.1 |
| 20260510063135 | 47 | 252 | 0.0 | 0.9 | 0.00 | 0.41 | 0.00 | 1 | 1011.9 |
| 20260510061552 | 47 | 252 | 0.0 | 0.0 | 0.00 | 0.41 | 0.00 | 1 | 1012.0 |
| 20260510060024 | 47 | 252 | 0.0 | 0.9 | 0.00 | 0.41 | 0.00 | 1 | 1012.0 |
| 20260510054607 | 47 | 243 | 0.0 | 1.7 | 0.00 | 0.41 | 0.00 | 1 | 1011.9 |
| 20260510053020 | 48 | 244 | 0.0 | 1.7 | 0.00 | 0.41 | 0.00 | 1 | 1011.7 |
| 20260510051619 | 48 | 244 | 0.0 | 1.7 | 0.00 | 0.41 | 0.00 | 1 | 1012.2 |
| 20260510050027 | 48 | 244 | 0.9 | 2.6 | 0.00 | 0.41 | 0.00 | 1 | 1012.3 |
| 20260510044616 | 47 | 165 | 0.0 | 0.9 | 0.00 | 0.41 | 0.00 | 1 | 1012.0 |
| 20260510043030 | 48 | 165 | 0.0 | 1.7 | 0.00 | 0.41 | 0.00 | 1 | 1011.9 |
| 20260510041626 | 48 | 167 | 0.9 | 2.6 | 0.00 | 0.41 | 0.00 | 1 | 1012.0 |
| 20260510040057 | 49 | 167 | 0.0 | 2.6 | 0.00 | 0.41 | 0.00 | 1 | 1012.1 |
| 20260510034540 | 49 | 167 | 0.0 | 2.6 | 0.00 | 0.41 | 0.41 | 1 | 1012.0 |
| 20260510033129 | 49 | 165 | 0.0 | 2.6 | 0.00 | 0.41 | 0.41 | 1 | 1012.0 |
| 20260510031546 | 49 | 166 | 0.0 | 2.6 | 0.00 | 0.41 | 0.41 | 1 | 1012.2 |
| 20260510030135 | 49 | 165 | 0.0 | 0.9 | 0.00 | 0.41 | 0.41 | 1 | 1012.2 |
| 20260510024552 | 49 | 165 | 0.0 | 0.9 | 0.00 | 0.41 | 0.41 | 1 | 1012.2 |
| 20260510023010 | 49 | 166 | 0.0 | 1.7 | 0.00 | 0.41 | 0.41 | 1 | 1012.3 |
| 20260510021651 | 49 | 165 | 0.0 | 2.6 | 0.00 | 0.41 | 0.41 | 1 | 1012.1 |
| 20260510020014 | 49 | 166 | 0.0 | 2.6 | 0.00 | 0.41 | 0.41 | 1 | 1012.0 |
| 20260510014614 | 49 | 194 | 0.0 | 1.7 | 0.00 | 0.41 | 0.41 | 1 | 1012.4 |
| 20260510013031 | 49 | 196 | 0.0 | 1.7 | 0.00 | 0.41 | 0.41 | 1 | 1012.5 |
| 20260510011621 | 49 | 198 | 0.0 | 1.7 | 0.00 | 0.41 | 0.41 | 1 | 1012.6 |
| 20260510010043 | 49 | 198 | 0.0 | 1.7 | 0.00 | 0.41 | 0.41 | 1 | 1012.1 |
| 20260510004625 | 49 | 201 | 0.0 | 2.6 | 0.00 | 0.41 | 0.41 | 1 | 1011.9 |
| 20260510003046 | 49 | 201 | 0.0 | 1.7 | 0.00 | 0.41 | 0.41 | 1 | 1011.7 |
| 20260510001506 | 49 | 224 | 0.9 | 2.6 | 0.01 | 0.41 | 0.41 | 1 | 1011.6 |
| 20260510000058 | 49 | 223 | 0.0 | 1.7 | 0.01 | 0.41 | 0.41 | 1 | 1011.5 |
| 20260509234656 | 49 | 222 | 0.0 | 2.6 | 0.01 | 0.41 | 0.41 | 1 | 1011.4 |
| 20260509233109 | 49 | 227 | 0.9 | 3.5 | 0.01 | 0.41 | 0.41 | 1 | 1011.4 |
| 20260509231530 | 49 | 178 | 0.0 | 4.3 | 0.00 | 0.40 | 0.40 | 1 | 1011.3 |
| 20260509230118 | 49 | 184 | 0.0 | 2.6 | 0.00 | 0.40 | 0.40 | 1 | 1011.4 |